Previsão horária em Abeokuta

Hoje, 11 Abril, Domingo

Tempo Temperatura Precipitação Vento Pressão Humidade
00:00 +29°C° 0 mm 2 m/s 748 mmHg 78%
01:00 +28°C° 0 mm 2 m/s 748 mmHg 80%
02:00 +28°C° 0 mm 2 m/s 748 mmHg 82%
03:00 +28°C° 0 mm 1 m/s 748 mmHg 83%
04:00 +28°C° 0 mm 1 m/s 749 mmHg 85%
05:00 +28°C° 0 mm 1 m/s 749 mmHg 86%
06:00 +28°C° 0 mm 1 m/s 749 mmHg 88%
07:00 +30°C° 0 mm 1 m/s 750 mmHg 78%
08:00 +31°C° 0 mm 2 m/s 750 mmHg 68%
09:00 +34°C° 0 mm 3 m/s 750 mmHg 58%
10:00 +36°C° 0 mm 3 m/s 750 mmHg 52%
11:00 +38°C° 0 mm 3 m/s 749 mmHg 45%
12:00 +40°C° 0 mm 3 m/s 749 mmHg 38%
13:00 +40°C° 0 mm 4 m/s 748 mmHg 40%
14:00 +38°C° 0 mm 4 m/s 748 mmHg 42%
15:00 +39°C° 0 mm 5 m/s 747 mmHg 44%
16:00 +35°C° 2.4 mm 4 m/s 748 mmHg 53%
17:00 +33°C° 2.4 mm 4 m/s 749 mmHg 63%
18:00 +30°C° 2.4 mm 3 m/s 750 mmHg 72%
19:00 +30°C° 0.3 mm 3 m/s 750 mmHg 75%
20:00 +29°C° 0.3 mm 3 m/s 750 mmHg 78%
21:00 +29°C° 0.3 mm 3 m/s 751 mmHg 81%
22:00 +29°C° 0 mm 3 m/s 750 mmHg 82%
23:00 +29°C° 0 mm 2 m/s 750 mmHg 83%

Amanhã, 12 Abril, Segunda-feira

Tempo Temperatura Precipitação Vento Pressão Humidade
00:00 +28°C° 0 mm 2 m/s 750 mmHg 84%
01:00 +28°C° 0 mm 2 m/s 750 mmHg 86%
02:00 +28°C° 0 mm 2 m/s 749 mmHg 88%
03:00 +27°C° 0 mm 1 m/s 749 mmHg 89%
04:00 +27°C° 0 mm 1 m/s 750 mmHg 90%
05:00 +27°C° 0 mm 1 m/s 750 mmHg 90%
06:00 +25°C° 0 mm 0 m/s 751 mmHg 91%
07:00 +29°C° 0 mm 1 m/s 751 mmHg 82%
08:00 +31°C° 0 mm 2 m/s 751 mmHg 72%
09:00 +34°C° 0 mm 3 m/s 752 mmHg 63%
10:00 +35°C° 0 mm 3 m/s 751 mmHg 55%
11:00 +37°C° 0 mm 3 m/s 750 mmHg 47%
12:00 +39°C° 0 mm 3 m/s 750 mmHg 40%
13:00 +39°C° 0 mm 3 m/s 749 mmHg 40%
14:00 +40°C° 0 mm 4 m/s 749 mmHg 40%
15:00 +38°C° 0 mm 4 m/s 748 mmHg 40%
16:00 +36°C° 0.5 mm 4 m/s 749 mmHg 49%
17:00 +34°C° 0.5 mm 4 m/s 749 mmHg 57%
18:00 +31°C° 0.5 mm 3 m/s 750 mmHg 65%
19:00 +31°C° 0.1 mm 3 m/s 751 mmHg 69%
20:00 +30°C° 0.1 mm 2 m/s 751 mmHg 73%
21:00 +29°C° 0.1 mm 2 m/s 752 mmHg 77%
22:00 +29°C° 1.3 mm 2 m/s 752 mmHg 79%
23:00 +29°C° 1.3 mm 2 m/s 752 mmHg 80%

Depois de amanhã, 13 Abril, Terça-feira

Tempo Temperatura Precipitação Vento Pressão Humidade
00:00 +28°C° 1.3 mm 3 m/s 751 mmHg 82%
01:00 +28°C° 0 mm 3 m/s 751 mmHg 83%
02:00 +27°C° 0 mm 3 m/s 751 mmHg 84%
03:00 +27°C° 0 mm 3 m/s 751 mmHg 85%
04:00 +27°C° 0 mm 3 m/s 750 mmHg 86%
05:00 +26°C° 0 mm 3 m/s 750 mmHg 87%
06:00 +26°C° 0 mm 2 m/s 750 mmHg 88%
07:00 +28°C° 0 mm 2 m/s 751 mmHg 77%
08:00 +31°C° 0 mm 1 m/s 751 mmHg 66%
09:00 +33°C° 0 mm 1 m/s 752 mmHg 56%
10:00 +34°C° 0 mm 1 m/s 751 mmHg 50%
11:00 +36°C° 0 mm 1 m/s 751 mmHg 44%
12:00 +39°C° 0 mm 2 m/s 750 mmHg 38%
13:00 +39°C° 0 mm 2 m/s 750 mmHg 38%
14:00 +39°C° 0 mm 2 m/s 749 mmHg 38%
15:00 +39°C° 0 mm 3 m/s 749 mmHg 38%
16:00 +37°C° 0 mm 3 m/s 749 mmHg 47%
17:00 +34°C° 0 mm 4 m/s 749 mmHg 55%
18:00 +32°C° 0 mm 4 m/s 749 mmHg 63%
19:00 +30°C° 0 mm 3 m/s 750 mmHg 68%
20:00 +30°C° 0 mm 3 m/s 751 mmHg 73%
21:00 +29°C° 0 mm 2 m/s 752 mmHg 78%
22:00 +29°C° 0 mm 2 m/s 751 mmHg 81%
23:00 +28°C° 0 mm 2 m/s 751 mmHg 84%

14 Abril, Quarta-feira

Tempo Temperatura Precipitação Vento Pressão Humidade
00:00 +28°C° 0 mm 2 m/s 751 mmHg 87%
01:00 +28°C° 0 mm 2 m/s 750 mmHg 88%
02:00 +28°C° 0 mm 2 m/s 750 mmHg 89%
03:00 +27°C° 0 mm 2 m/s 750 mmHg 90%
04:00 +27°C° 0 mm 1 m/s 750 mmHg 90%
05:00 +27°C° 0 mm 1 m/s 751 mmHg 91%
06:00 +25°C° 0 mm 0 m/s 751 mmHg 91%
07:00 +29°C° 0 mm 1 m/s 751 mmHg 80%
08:00 +31°C° 0 mm 2 m/s 752 mmHg 69%
09:00 +34°C° 0 mm 3 m/s 752 mmHg 58%
10:00 +36°C° 0 mm 3 m/s 751 mmHg 52%
11:00 +38°C° 0 mm 3 m/s 751 mmHg 45%
12:00 +39°C° 0 mm 3 m/s 750 mmHg 38%
13:00 +40°C° 0 mm 3 m/s 749 mmHg 37%
14:00 +41°C° 0 mm 4 m/s 749 mmHg 36%
15:00 +41°C° 0 mm 5 m/s 748 mmHg 35%
16:00 +37°C° 0.5 mm 4 m/s 748 mmHg 46%
17:00 +34°C° 0.5 mm 3 m/s 749 mmHg 56%
18:00 +31°C° 0.5 mm 3 m/s 749 mmHg 66%
19:00 +30°C° 0 mm 3 m/s 750 mmHg 69%
20:00 +30°C° 0 mm 3 m/s 751 mmHg 72%
21:00 +29°C° 0 mm 3 m/s 751 mmHg 75%
22:00 +29°C° 0 mm 2 m/s 751 mmHg 76%
23:00 +28°C° 0 mm 2 m/s 751 mmHg 78%

15 Abril, Quinta-feira

Tempo Temperatura Precipitação Vento Pressão Humidade
00:00 +28°C° 0 mm 2 m/s 751 mmHg 80%
01:00 +28°C° 0 mm 2 m/s 750 mmHg 81%
02:00 +28°C° 0 mm 2 m/s 750 mmHg 83%
03:00 +28°C° 0 mm 3 m/s 749 mmHg 84%
04:00 +28°C° 0 mm 2 m/s 750 mmHg 86%
05:00 +27°C° 0 mm 1 m/s 750 mmHg 88%
06:00 +27°C° 0 mm 1 m/s 751 mmHg 90%
07:00 +29°C° 0 mm 1 m/s 751 mmHg 84%
08:00 +30°C° 0 mm 2 m/s 752 mmHg 77%
09:00 +31°C° 0 mm 2 m/s 752 mmHg 70%
10:00 +34°C° 0 mm 2 m/s 752 mmHg 62%
11:00 +36°C° 0 mm 2 m/s 751 mmHg 54%
12:00 +38°C° 0 mm 2 m/s 750 mmHg 46%
13:00 +38°C° 0 mm 2 m/s 750 mmHg 44%
14:00 +39°C° 0 mm 2 m/s 749 mmHg 42%
15:00 +39°C° 0 mm 3 m/s 748 mmHg 41%
16:00 +37°C° 0 mm 3 m/s 748 mmHg 48%
17:00 +35°C° 0 mm 4 m/s 748 mmHg 55%
18:00 +33°C° 0 mm 4 m/s 749 mmHg 62%
19:00 +31°C° 0.1 mm 3 m/s 749 mmHg 68%
20:00 +29°C° 0.1 mm 2 m/s 750 mmHg 75%
21:00 +28°C° 0.1 mm 1 m/s 751 mmHg 81%
22:00 +28°C° 0 mm 2 m/s 750 mmHg 83%
23:00 +28°C° 0 mm 2 m/s 750 mmHg 85%

16 Abril, Sexta-feira

Tempo Temperatura Precipitação Vento Pressão Humidade
00:00 +27°C° 0 mm 2 m/s 749 mmHg 87%
01:00 +27°C° 0 mm 2 m/s 749 mmHg 89%
02:00 +27°C° 0 mm 1 m/s 749 mmHg 90%
03:00 +27°C° 0 mm 1 m/s 749 mmHg 92%
04:00 +27°C° 0 mm 1 m/s 749 mmHg 93%
05:00 +27°C° 0 mm 1 m/s 749 mmHg 93%
06:00 +25°C° 0 mm 0 m/s 750 mmHg 93%
07:00 +29°C° 0 mm 1 m/s 750 mmHg 83%
08:00 +31°C° 0 mm 2 m/s 751 mmHg 72%
09:00 +34°C° 0 mm 2 m/s 751 mmHg 61%
10:00 +35°C° 0 mm 2 m/s 750 mmHg 55%
11:00 +37°C° 0 mm 2 m/s 750 mmHg 48%
12:00 +39°C° 0 mm 2 m/s 749 mmHg 41%
13:00 +39°C° 0 mm 3 m/s 749 mmHg 40%
14:00 +39°C° 0 mm 3 m/s 748 mmHg 38%
15:00 +41°C° 0 mm 4 m/s 748 mmHg 37%
16:00 +37°C° 0.1 mm 4 m/s 748 mmHg 46%
17:00 +35°C° 0.1 mm 4 m/s 748 mmHg 55%
18:00 +32°C° 0.1 mm 4 m/s 748 mmHg 63%
19:00 +30°C° 0.2 mm 3 m/s 749 mmHg 70%
20:00 +29°C° 0.2 mm 3 m/s 750 mmHg 76%
21:00 +28°C° 0.2 mm 2 m/s 750 mmHg 82%
22:00 +28°C° 0 mm 2 m/s 750 mmHg 83%
23:00 +28°C° 0 mm 2 m/s 750 mmHg 84%
Mostrar mais

Necessitamos do seu Consentimento

A Meteoprog e os seus Fornecedores de Serviços podem armazenar e aceder a dados pessoais como cookies, identificadores do dispositivo ou outras tecnologias semelhantes existentes no seu dispositivo e processar estes dados para personalizar conteúdos e anúncios, assim como funcionalidades nas redes sociais e análise de tráfego.

  • Armazenar e/ou aceder a informações no seu dispositivo

    Os cookies, identificadores do dispositivo ou outras informações podem ser armazenados ou acedidos no seu dispositivo, para os fins acima indicados.

  • Anúncios e conteúdos personalizados, medição de anúncios e conteúdos, dados sobre o público-alvo e desenvolvimento de produtos

    Os anúncios e os conteúdos podem ser personalizados com base num perfil. Podem ser adicionados dados adicionais para uma maior personalização dos anúncios e dos conteúdos. A eficácia dos anúncios e dos conteúdos pode ser medida. Podem ser obtidas informações sobre o público que visualizou os anúncios e os conteúdos. Estes dados podem ser usados para desenvolver ou melhorar sistemas, softwares ou a experiência do utilizador.

Ao clicar em "Eu concordo”, permitirá o uso de cookies, identificadores do dispositivo e web beacons mencionados ou outras tecnologias semelhantes. As configurações do navegador do seu dispositivo podem ser alteradas.

Para certos fins, podem ser invocados interesses legítimos ao invés de consentimento. Pode ler mais informação sobre este assunto na nossa Política de Privacidade e Cookies.